Year,Month,Day,Hour,Minute,Value (Times are PST for temperature in C)
2013,07,04,00,00,14.90
2013,07,04,00,01,14.90
2013,07,04,00,02,14.90
2013,07,04,00,03,15.00
2013,07,04,00,04,15.00
2013,07,04,00,05,15.00
2013,07,04,00,06,15.00
2013,07,04,00,07,15.00
2013,07,04,00,08,15.00
2013,07,04,00,09,15.00
2013,07,04,00,10,15.00
2013,07,04,00,11,15.00
2013,07,04,00,12,15.00
2013,07,04,00,13,15.00
2013,07,04,00,14,15.00
2013,07,04,00,15,15.00
2013,07,04,00,16,15.00
2013,07,04,00,17,14.90
2013,07,04,00,18,14.90
2013,07,04,00,19,14.90
2013,07,04,00,20,15.00
2013,07,04,00,21,14.90
2013,07,04,00,22,15.00
2013,07,04,00,23,15.00
2013,07,04,00,24,15.10
2013,07,04,00,25,15.10
2013,07,04,00,26,15.20
2013,07,04,00,27,15.30
2013,07,04,00,28,15.30
2013,07,04,00,29,15.40
2013,07,04,00,30,15.50
2013,07,04,00,31,15.50
2013,07,04,00,32,15.60
2013,07,04,00,33,15.70
2013,07,04,00,34,15.70
2013,07,04,00,35,15.70
2013,07,04,00,36,15.60
2013,07,04,00,37,15.60
2013,07,04,00,38,15.60
2013,07,04,00,39,15.60
2013,07,04,00,40,15.60
2013,07,04,00,41,15.60
2013,07,04,00,42,15.60
2013,07,04,00,43,15.70
2013,07,04,00,44,15.70
2013,07,04,00,45,15.70
2013,07,04,00,46,15.70
2013,07,04,00,47,15.80
2013,07,04,00,48,15.80
2013,07,04,00,49,15.80
2013,07,04,00,50,15.80
2013,07,04,00,51,15.80
2013,07,04,00,52,15.80
2013,07,04,00,53,15.80
2013,07,04,00,54,15.80
2013,07,04,00,55,15.80
2013,07,04,00,56,15.80
2013,07,04,00,57,15.70
2013,07,04,00,58,15.80
2013,07,04,00,59,15.80
2013,07,04,01,00,15.80
2013,07,04,01,01,15.80
2013,07,04,01,02,15.80
2013,07,04,01,03,15.80
2013,07,04,01,04,15.70
2013,07,04,01,05,15.70
2013,07,04,01,06,15.70
2013,07,04,01,07,15.80
2013,07,04,01,08,15.80
2013,07,04,01,09,15.80
2013,07,04,01,10,15.80
2013,07,04,01,11,15.80
2013,07,04,01,12,15.70
2013,07,04,01,13,15.70
2013,07,04,01,14,15.60
2013,07,04,01,15,15.50
2013,07,04,01,16,15.50
2013,07,04,01,17,15.40
2013,07,04,01,18,15.40
2013,07,04,01,19,15.40
2013,07,04,01,20,15.40
2013,07,04,01,21,15.40
2013,07,04,01,22,15.50
2013,07,04,01,23,15.50
2013,07,04,01,24,15.50
2013,07,04,01,25,15.50
2013,07,04,01,26,15.50
2013,07,04,01,27,15.60
2013,07,04,01,28,15.60
2013,07,04,01,29,15.60
2013,07,04,01,30,15.60
2013,07,04,01,31,15.60
2013,07,04,01,32,15.60
2013,07,04,01,33,15.50
2013,07,04,01,34,15.50
2013,07,04,01,35,15.50
2013,07,04,01,36,15.50
2013,07,04,01,37,15.40
2013,07,04,01,38,15.40
2013,07,04,01,39,15.40
2013,07,04,01,40,15.40
2013,07,04,01,41,15.40
2013,07,04,01,42,15.40
2013,07,04,01,43,15.40
2013,07,04,01,44,15.50
2013,07,04,01,45,15.50
2013,07,04,01,46,15.50
2013,07,04,01,47,15.50
2013,07,04,01,48,15.50
2013,07,04,01,49,15.50
2013,07,04,01,50,15.40
2013,07,04,01,51,15.40
2013,07,04,01,52,15.40
2013,07,04,01,53,15.40
2013,07,04,01,54,15.40
2013,07,04,01,55,15.40
2013,07,04,01,56,15.40
2013,07,04,01,57,15.30
2013,07,04,01,58,15.30
2013,07,04,01,59,15.30
2013,07,04,02,00,15.30
2013,07,04,02,01,15.30
2013,07,04,02,02,15.30
2013,07,04,02,03,15.30
2013,07,04,02,04,15.30
2013,07,04,02,05,15.30
2013,07,04,02,06,15.30
2013,07,04,02,07,15.30
2013,07,04,02,08,15.30
2013,07,04,02,09,15.20
2013,07,04,02,10,15.20
2013,07,04,02,11,15.20
2013,07,04,02,12,15.20
2013,07,04,02,13,15.20
2013,07,04,02,14,15.10
2013,07,04,02,15,15.10
2013,07,04,02,16,15.10
2013,07,04,02,17,15.10
2013,07,04,02,18,15.10
2013,07,04,02,19,15.10
2013,07,04,02,20,15.00
2013,07,04,02,21,15.00
2013,07,04,02,22,15.00
2013,07,04,02,23,15.00
2013,07,04,02,24,15.00
2013,07,04,02,25,15.00
2013,07,04,02,26,15.00
2013,07,04,02,27,15.00
2013,07,04,02,28,15.00
2013,07,04,02,29,14.90
2013,07,04,02,30,14.90
2013,07,04,02,31,14.90
2013,07,04,02,32,14.90
2013,07,04,02,33,14.80
2013,07,04,02,34,14.80
2013,07,04,02,35,14.80
2013,07,04,02,36,14.70
2013,07,04,02,37,14.70
2013,07,04,02,38,14.70
2013,07,04,02,39,14.60
2013,07,04,02,40,14.60
2013,07,04,02,41,14.50
2013,07,04,02,42,14.50
2013,07,04,02,43,14.50
2013,07,04,02,44,14.40
2013,07,04,02,45,14.40
2013,07,04,02,46,14.40
2013,07,04,02,47,14.30
2013,07,04,02,48,14.30
2013,07,04,02,49,14.30
2013,07,04,02,50,14.30
2013,07,04,02,51,14.30
2013,07,04,02,52,14.30
2013,07,04,02,53,14.30
2013,07,04,02,54,14.30
2013,07,04,02,55,14.30
2013,07,04,02,56,14.20
2013,07,04,02,57,14.20
2013,07,04,02,58,14.20
2013,07,04,02,59,14.20
2013,07,04,03,00,14.20
2013,07,04,03,01,14.20
2013,07,04,03,02,14.20
2013,07,04,03,03,14.10
2013,07,04,03,04,14.10
2013,07,04,03,05,14.10
2013,07,04,03,06,14.10
2013,07,04,03,07,14.10
2013,07,04,03,08,14.10
2013,07,04,03,09,14.10
2013,07,04,03,10,14.00
2013,07,04,03,11,14.00
2013,07,04,03,12,14.00
2013,07,04,03,13,13.90
2013,07,04,03,14,13.90
2013,07,04,03,15,13.90
2013,07,04,03,16,13.80
2013,07,04,03,17,13.80
2013,07,04,03,18,13.80
2013,07,04,03,19,13.70
2013,07,04,03,20,13.70
2013,07,04,03,21,13.70
2013,07,04,03,22,13.60
2013,07,04,03,23,13.60
2013,07,04,03,24,13.60
2013,07,04,03,25,13.60
2013,07,04,03,26,13.60
2013,07,04,03,27,13.60
2013,07,04,03,28,13.50
2013,07,04,03,29,13.50
2013,07,04,03,30,13.50
2013,07,04,03,31,13.40
2013,07,04,03,32,13.40
2013,07,04,03,33,13.30
2013,07,04,03,34,13.30
2013,07,04,03,35,13.30
2013,07,04,03,36,13.30
2013,07,04,03,37,13.30
2013,07,04,03,38,13.20
2013,07,04,03,39,13.20
2013,07,04,03,40,13.20
2013,07,04,03,41,13.20
2013,07,04,03,42,13.20
2013,07,04,03,43,13.10
2013,07,04,03,44,13.10
2013,07,04,03,45,13.00
2013,07,04,03,46,13.00
2013,07,04,03,47,12.90
2013,07,04,03,48,12.90
2013,07,04,03,49,12.90
2013,07,04,03,50,12.80
2013,07,04,03,51,12.80
2013,07,04,03,52,12.80
2013,07,04,03,53,12.70
2013,07,04,03,54,12.70
2013,07,04,03,55,12.70
2013,07,04,03,56,12.70
2013,07,04,03,57,12.70
2013,07,04,03,58,12.60
2013,07,04,03,59,12.60
2013,07,04,04,00,12.60
2013,07,04,04,01,12.60
2013,07,04,04,02,12.50
2013,07,04,04,03,12.50
2013,07,04,04,04,12.50
2013,07,04,04,05,12.50
2013,07,04,04,06,12.50
2013,07,04,04,07,12.50
2013,07,04,04,08,12.50
2013,07,04,04,09,12.50
2013,07,04,04,10,12.50
2013,07,04,04,11,12.50
2013,07,04,04,12,12.50
2013,07,04,04,13,12.50
2013,07,04,04,14,12.50
2013,07,04,04,15,12.50
2013,07,04,04,16,12.50
2013,07,04,04,17,12.50
2013,07,04,04,18,12.50
2013,07,04,04,19,12.50
2013,07,04,04,20,12.40
2013,07,04,04,21,12.40
2013,07,04,04,22,12.40
2013,07,04,04,23,12.40
2013,07,04,04,24,12.40
2013,07,04,04,25,12.40
2013,07,04,04,26,12.40
2013,07,04,04,27,12.40
2013,07,04,04,28,12.30
2013,07,04,04,29,12.30
2013,07,04,04,30,12.30
2013,07,04,04,31,12.30
2013,07,04,04,32,12.20
2013,07,04,04,33,12.20
2013,07,04,04,34,12.20
2013,07,04,04,35,12.20
2013,07,04,04,36,12.20
2013,07,04,04,37,12.20
2013,07,04,04,38,12.20
2013,07,04,04,39,12.20
2013,07,04,04,40,12.20
2013,07,04,04,41,12.10
2013,07,04,04,42,12.10
2013,07,04,04,43,12.10
2013,07,04,04,44,12.10
2013,07,04,04,45,12.10
2013,07,04,04,46,12.00
2013,07,04,04,47,12.00
2013,07,04,04,48,12.00
2013,07,04,04,49,11.90
2013,07,04,04,50,11.90
2013,07,04,04,51,11.90
2013,07,04,04,52,11.90
2013,07,04,04,53,11.90
2013,07,04,04,54,11.80
2013,07,04,04,55,11.80
2013,07,04,04,56,11.80
2013,07,04,04,57,11.70
2013,07,04,04,58,11.70
2013,07,04,04,59,11.70
2013,07,04,05,00,11.70
2013,07,04,05,01,11.60
2013,07,04,05,02,11.60
2013,07,04,05,03,11.60
2013,07,04,05,04,11.50
2013,07,04,05,05,11.50
2013,07,04,05,06,11.50
2013,07,04,05,07,11.40
2013,07,04,05,08,11.40
2013,07,04,05,09,11.40
2013,07,04,05,10,11.40
2013,07,04,05,11,11.30
2013,07,04,05,12,11.30
2013,07,04,05,13,11.30
2013,07,04,05,14,11.30
2013,07,04,05,15,11.30
2013,07,04,05,16,11.20
2013,07,04,05,17,11.20
2013,07,04,05,18,11.20
2013,07,04,05,19,11.20
2013,07,04,05,20,11.20
2013,07,04,05,21,11.20
2013,07,04,05,22,11.20
2013,07,04,05,23,11.20
2013,07,04,05,24,11.10
2013,07,04,05,25,11.10
2013,07,04,05,26,11.10
2013,07,04,05,27,11.10
2013,07,04,05,28,11.10
2013,07,04,05,29,11.10
2013,07,04,05,30,11.10
2013,07,04,05,31,11.10
2013,07,04,05,32,11.10
2013,07,04,05,33,11.00
2013,07,04,05,34,11.10
2013,07,04,05,35,11.00
2013,07,04,05,36,11.00
2013,07,04,05,37,11.00
2013,07,04,05,38,11.00
2013,07,04,05,39,10.90
2013,07,04,05,40,10.90
2013,07,04,05,41,10.90
2013,07,04,05,42,10.90
2013,07,04,05,43,10.90
2013,07,04,05,44,10.90
2013,07,04,05,45,10.90
2013,07,04,05,46,10.90
2013,07,04,05,47,10.80
2013,07,04,05,48,10.80
2013,07,04,05,49,10.80
2013,07,04,05,50,10.80
2013,07,04,05,51,10.80
2013,07,04,05,52,10.80
2013,07,04,05,53,10.80
2013,07,04,05,54,10.80
2013,07,04,05,55,10.80
2013,07,04,05,56,10.80
2013,07,04,05,57,10.80
2013,07,04,05,58,10.80
2013,07,04,05,59,10.80
2013,07,04,06,00,10.80
2013,07,04,06,01,10.70
2013,07,04,06,02,10.70
2013,07,04,06,03,10.70
2013,07,04,06,04,10.70
2013,07,04,06,05,10.70
2013,07,04,06,06,10.70
2013,07,04,06,07,10.70
2013,07,04,06,08,10.70
2013,07,04,06,09,10.70
2013,07,04,06,10,10.70
2013,07,04,06,11,10.70
2013,07,04,06,12,10.70
2013,07,04,06,13,10.70
2013,07,04,06,14,10.70
2013,07,04,06,15,10.60
2013,07,04,06,16,10.60
2013,07,04,06,17,10.60
2013,07,04,06,18,10.60
2013,07,04,06,19,10.60
2013,07,04,06,20,10.60
2013,07,04,06,21,10.60
2013,07,04,06,22,10.60
2013,07,04,06,23,10.50
2013,07,04,06,24,10.50
2013,07,04,06,25,10.50
2013,07,04,06,26,10.50
2013,07,04,06,27,10.50
2013,07,04,06,28,10.50
2013,07,04,06,29,10.50
2013,07,04,06,30,10.50
2013,07,04,06,31,10.50
2013,07,04,06,32,10.50
2013,07,04,06,33,10.50
2013,07,04,06,34,10.50
2013,07,04,06,35,10.50
2013,07,04,06,36,10.50
2013,07,04,06,37,10.50
2013,07,04,06,38,10.50
2013,07,04,06,39,10.60
2013,07,04,06,40,10.60
2013,07,04,06,41,10.60
2013,07,04,06,42,10.60
2013,07,04,06,43,10.60
2013,07,04,06,44,10.60
2013,07,04,06,45,10.60
2013,07,04,06,46,10.60
2013,07,04,06,47,10.70
2013,07,04,06,48,10.70
2013,07,04,06,49,10.70
2013,07,04,06,50,10.80
2013,07,04,06,51,10.80
2013,07,04,06,52,10.90
2013,07,04,06,53,10.90
2013,07,04,06,54,11.00
2013,07,04,06,55,11.10
2013,07,04,06,56,11.20
2013,07,04,06,57,11.30
2013,07,04,06,58,11.40
2013,07,04,06,59,11.50
2013,07,04,07,00,11.60
2013,07,04,07,01,11.60
2013,07,04,07,02,11.70
2013,07,04,07,03,11.80
2013,07,04,07,04,11.90
2013,07,04,07,05,11.90
2013,07,04,07,06,12.00
2013,07,04,07,07,12.10
2013,07,04,07,08,12.10
2013,07,04,07,09,12.20
2013,07,04,07,10,12.20
2013,07,04,07,11,12.30
2013,07,04,07,12,12.30
2013,07,04,07,13,12.40
2013,07,04,07,14,12.50
2013,07,04,07,15,12.50
2013,07,04,07,16,12.60
2013,07,04,07,17,12.60
2013,07,04,07,18,12.70
2013,07,04,07,19,12.70
2013,07,04,07,20,12.70
2013,07,04,07,21,12.80
2013,07,04,07,22,12.90
2013,07,04,07,23,13.00
2013,07,04,07,24,13.00
2013,07,04,07,25,13.00
2013,07,04,07,26,13.10
2013,07,04,07,27,13.10
2013,07,04,07,28,13.20
2013,07,04,07,29,13.20
2013,07,04,07,30,13.20
2013,07,04,07,31,13.30
2013,07,04,07,32,13.40
2013,07,04,07,33,13.50
2013,07,04,07,34,13.60
2013,07,04,07,35,13.70
2013,07,04,07,36,13.70
2013,07,04,07,37,13.80
2013,07,04,07,38,13.90
2013,07,04,07,39,14.00
2013,07,04,07,40,14.00
2013,07,04,07,41,14.10
2013,07,04,07,42,14.10
2013,07,04,07,43,14.10
2013,07,04,07,44,14.10
2013,07,04,07,45,14.10
2013,07,04,07,46,14.20
2013,07,04,07,47,14.20
2013,07,04,07,48,14.20
2013,07,04,07,49,14.20
2013,07,04,07,50,14.20
2013,07,04,07,51,14.30
2013,07,04,07,52,14.30
2013,07,04,07,53,14.40
2013,07,04,07,54,14.50
2013,07,04,07,55,14.60
2013,07,04,07,56,14.70
2013,07,04,07,57,14.70
2013,07,04,07,58,14.80
2013,07,04,07,59,14.80
2013,07,04,08,00,14.90
2013,07,04,08,01,14.90
2013,07,04,08,02,15.00
2013,07,04,08,03,15.00
2013,07,04,08,04,15.10
2013,07,04,08,05,15.20
2013,07,04,08,06,15.20
2013,07,04,08,07,15.30
2013,07,04,08,08,15.40
2013,07,04,08,09,15.50
2013,07,04,08,10,15.50
2013,07,04,08,11,15.50
2013,07,04,08,12,15.40
2013,07,04,08,13,15.40
2013,07,04,08,14,15.40
2013,07,04,08,15,15.30
2013,07,04,08,16,15.30
2013,07,04,08,17,15.30
2013,07,04,08,18,15.30
2013,07,04,08,19,15.30
2013,07,04,08,20,15.40
2013,07,04,08,21,15.40
2013,07,04,08,22,15.40
2013,07,04,08,23,15.40
2013,07,04,08,24,15.40
2013,07,04,08,25,15.40
2013,07,04,08,26,15.40
2013,07,04,08,27,15.50
2013,07,04,08,28,15.50
2013,07,04,08,29,15.60
2013,07,04,08,30,15.70
2013,07,04,08,31,15.70
2013,07,04,08,32,15.70
2013,07,04,08,33,15.70
2013,07,04,08,34,15.80
2013,07,04,08,35,15.80
2013,07,04,08,36,15.80
2013,07,04,08,37,15.90
2013,07,04,08,38,15.90
2013,07,04,08,39,15.90
2013,07,04,08,40,15.90
2013,07,04,08,41,15.90
2013,07,04,08,42,15.90
2013,07,04,08,43,15.90
2013,07,04,08,44,15.80
2013,07,04,08,45,15.80
2013,07,04,08,46,15.80
2013,07,04,08,47,15.80
2013,07,04,08,48,15.80
2013,07,04,08,49,15.80
2013,07,04,08,50,15.80
2013,07,04,08,51,15.80
2013,07,04,08,52,15.80
2013,07,04,08,53,15.70
2013,07,04,08,54,15.70
2013,07,04,08,55,15.70
2013,07,04,08,56,15.70
2013,07,04,08,57,15.70
2013,07,04,08,58,15.80
2013,07,04,08,59,15.80
2013,07,04,09,00,15.80
2013,07,04,09,01,15.90
2013,07,04,09,02,16.00
2013,07,04,09,03,16.00
2013,07,04,09,04,16.00
2013,07,04,09,05,16.10
2013,07,04,09,06,16.20
2013,07,04,09,07,16.20
2013,07,04,09,08,16.30
2013,07,04,09,09,16.40
2013,07,04,09,10,16.50
2013,07,04,09,11,16.50
2013,07,04,09,12,16.60
2013,07,04,09,13,16.70
2013,07,04,09,14,16.70
2013,07,04,09,15,16.80
2013,07,04,09,16,16.80
2013,07,04,09,17,16.80
2013,07,04,09,18,16.80
2013,07,04,09,19,16.80
2013,07,04,09,20,16.90
2013,07,04,09,21,16.90
2013,07,04,09,22,16.90
2013,07,04,09,23,16.90
2013,07,04,09,24,16.90
2013,07,04,09,25,16.90
2013,07,04,09,26,16.90
2013,07,04,09,27,17.00
2013,07,04,09,28,17.00
2013,07,04,09,29,17.00
2013,07,04,09,30,17.10
2013,07,04,09,31,17.00
2013,07,04,09,32,17.00
2013,07,04,09,33,17.10
2013,07,04,09,34,17.10
2013,07,04,09,35,17.10
2013,07,04,09,36,17.10
2013,07,04,09,37,17.10
2013,07,04,09,38,17.10
2013,07,04,09,39,17.20
2013,07,04,09,40,17.20
2013,07,04,09,41,17.30
2013,07,04,09,42,17.40
2013,07,04,09,43,17.50
2013,07,04,09,44,17.50
2013,07,04,09,45,17.60
2013,07,04,09,46,17.70
2013,07,04,09,47,17.70
2013,07,04,09,48,17.70
2013,07,04,09,49,17.80
2013,07,04,09,50,17.80
2013,07,04,09,51,17.80
2013,07,04,09,52,17.90
2013,07,04,09,53,17.90
2013,07,04,09,54,18.00
2013,07,04,09,55,18.00
2013,07,04,09,56,18.00
2013,07,04,09,57,18.10
2013,07,04,09,58,18.10
2013,07,04,09,59,18.10
2013,07,04,10,00,18.10
2013,07,04,10,01,18.10
2013,07,04,10,02,18.10
2013,07,04,10,03,18.20
2013,07,04,10,04,18.20
2013,07,04,10,05,18.20
2013,07,04,10,06,18.20
2013,07,04,10,07,18.20
2013,07,04,10,08,18.20
2013,07,04,10,09,18.20
2013,07,04,10,10,18.20
2013,07,04,10,11,18.20
2013,07,04,10,12,18.30
2013,07,04,10,13,18.30
2013,07,04,10,14,18.40
2013,07,04,10,15,18.40
2013,07,04,10,16,18.40
2013,07,04,10,17,18.40
2013,07,04,10,18,18.40
2013,07,04,10,19,18.40
2013,07,04,10,20,18.50
2013,07,04,10,21,18.60
2013,07,04,10,22,18.60
2013,07,04,10,23,18.70
2013,07,04,10,24,18.70
2013,07,04,10,25,18.70
2013,07,04,10,26,18.80
2013,07,04,10,27,18.80
2013,07,04,10,28,18.80
2013,07,04,10,29,18.80
2013,07,04,10,30,18.80
2013,07,04,10,31,18.80
2013,07,04,10,32,18.90
2013,07,04,10,33,18.90
2013,07,04,10,34,18.90
2013,07,04,10,35,19.00
2013,07,04,10,36,19.00
2013,07,04,10,37,19.10
2013,07,04,10,38,19.10
2013,07,04,10,39,19.10
2013,07,04,10,40,19.20
2013,07,04,10,41,19.20
2013,07,04,10,42,19.30
2013,07,04,10,43,19.30
2013,07,04,10,44,19.30
2013,07,04,10,45,19.40
2013,07,04,10,46,19.50
2013,07,04,10,47,19.60
2013,07,04,10,48,19.70
2013,07,04,10,49,19.70
2013,07,04,10,50,19.70
2013,07,04,10,51,19.70
2013,07,04,10,52,19.70
2013,07,04,10,53,19.70
2013,07,04,10,54,19.70
2013,07,04,10,55,19.80
2013,07,04,10,56,19.80
2013,07,04,10,57,19.90
2013,07,04,10,58,19.90
2013,07,04,10,59,19.90
2013,07,04,11,00,19.90
2013,07,04,11,01,20.00
2013,07,04,11,02,20.10
2013,07,04,11,03,20.10
2013,07,04,11,04,20.10
2013,07,04,11,05,20.00
2013,07,04,11,06,20.00
2013,07,04,11,07,20.10
2013,07,04,11,08,20.20
2013,07,04,11,09,20.30
2013,07,04,11,10,20.40
2013,07,04,11,11,20.40
2013,07,04,11,12,20.50
2013,07,04,11,13,20.60
2013,07,04,11,14,20.70
2013,07,04,11,15,20.80
2013,07,04,11,16,20.80
2013,07,04,11,17,20.90
2013,07,04,11,18,20.90
2013,07,04,11,19,20.80
2013,07,04,11,20,20.80
2013,07,04,11,21,20.90
2013,07,04,11,22,20.90
2013,07,04,11,23,21.00
2013,07,04,11,24,21.10
2013,07,04,11,25,21.20
2013,07,04,11,26,21.30
2013,07,04,11,27,21.30
2013,07,04,11,28,21.30
2013,07,04,11,29,21.40
2013,07,04,11,30,21.50
2013,07,04,11,31,21.60
2013,07,04,11,32,21.70
2013,07,04,11,33,21.70
2013,07,04,11,34,21.70
2013,07,04,11,35,21.70
2013,07,04,11,36,21.60
2013,07,04,11,37,21.60
2013,07,04,11,38,21.60
2013,07,04,11,39,21.60
2013,07,04,11,40,21.60
2013,07,04,11,41,21.60
2013,07,04,11,42,21.60
2013,07,04,11,43,21.50
2013,07,04,11,44,21.40
2013,07,04,11,45,21.40
2013,07,04,11,46,21.40
2013,07,04,11,47,21.50
2013,07,04,11,48,21.60
2013,07,04,11,49,21.70
2013,07,04,11,50,21.80
2013,07,04,11,51,21.80
2013,07,04,11,52,21.90
2013,07,04,11,53,21.90
2013,07,04,11,54,21.90
2013,07,04,11,55,21.90
2013,07,04,11,56,21.90
2013,07,04,11,57,21.90
2013,07,04,11,58,22.00
2013,07,04,11,59,21.90
2013,07,04,12,00,21.90
2013,07,04,12,01,21.80
2013,07,04,12,02,21.80
2013,07,04,12,03,21.70
2013,07,04,12,04,21.70
2013,07,04,12,05,21.80
2013,07,04,12,06,21.90
2013,07,04,12,07,21.90
2013,07,04,12,08,22.00
2013,07,04,12,09,22.00
2013,07,04,12,10,22.10
2013,07,04,12,11,22.20
2013,07,04,12,12,22.20
2013,07,04,12,13,22.10
2013,07,04,12,14,22.00
2013,07,04,12,15,22.00
2013,07,04,12,16,21.90
2013,07,04,12,17,21.90
2013,07,04,12,18,21.90
2013,07,04,12,19,22.00
2013,07,04,12,20,22.10
2013,07,04,12,21,22.10
2013,07,04,12,22,22.20
2013,07,04,12,23,22.20
2013,07,04,12,24,22.20
2013,07,04,12,25,22.30
2013,07,04,12,26,22.30
2013,07,04,12,27,22.30
2013,07,04,12,28,22.20
2013,07,04,12,29,22.20
2013,07,04,12,30,22.20
2013,07,04,12,31,22.30
2013,07,04,12,32,22.40
2013,07,04,12,33,22.50
2013,07,04,12,34,22.60
2013,07,04,12,35,22.70
2013,07,04,12,36,22.70
2013,07,04,12,37,22.80
2013,07,04,12,38,22.80
2013,07,04,12,39,22.80
2013,07,04,12,40,22.80
2013,07,04,12,41,22.80
2013,07,04,12,42,22.80
2013,07,04,12,43,22.80
2013,07,04,12,44,22.80
2013,07,04,12,45,22.80
2013,07,04,12,46,22.80
2013,07,04,12,47,22.80
2013,07,04,12,48,22.70
2013,07,04,12,49,22.70
2013,07,04,12,50,22.60
2013,07,04,12,51,22.60
2013,07,04,12,52,22.70
2013,07,04,12,53,22.70
2013,07,04,12,54,22.80
2013,07,04,12,55,22.90
2013,07,04,12,56,22.90
2013,07,04,12,57,22.80
2013,07,04,12,58,22.80
2013,07,04,12,59,22.90
2013,07,04,13,00,22.90
2013,07,04,13,01,22.90
2013,07,04,13,02,23.00
2013,07,04,13,03,23.00
2013,07,04,13,04,23.20
2013,07,04,13,05,23.20
2013,07,04,13,06,23.20
2013,07,04,13,07,23.30
2013,07,04,13,08,23.30
2013,07,04,13,09,23.50
2013,07,04,13,10,23.50
2013,07,04,13,11,23.50
2013,07,04,13,12,23.50
2013,07,04,13,13,23.50
2013,07,04,13,14,23.50
2013,07,04,13,15,23.60
2013,07,04,13,16,23.70
2013,07,04,13,17,23.80
2013,07,04,13,18,23.90
2013,07,04,13,19,23.90
2013,07,04,13,20,23.90
2013,07,04,13,21,24.00
2013,07,04,13,22,24.10
2013,07,04,13,23,24.20
2013,07,04,13,24,24.30
2013,07,04,13,25,24.30
2013,07,04,13,26,24.30
2013,07,04,13,27,24.30
2013,07,04,13,28,24.20
2013,07,04,13,29,24.20
2013,07,04,13,30,24.10
2013,07,04,13,31,24.10
2013,07,04,13,32,24.00
2013,07,04,13,33,24.00
2013,07,04,13,34,24.00
2013,07,04,13,35,24.00
2013,07,04,13,36,24.00
2013,07,04,13,37,24.00
2013,07,04,13,38,23.90
2013,07,04,13,39,23.90
2013,07,04,13,40,23.90
2013,07,04,13,41,23.90
2013,07,04,13,42,23.90
2013,07,04,13,43,23.80
2013,07,04,13,44,23.80
2013,07,04,13,45,23.80
2013,07,04,13,46,23.80
2013,07,04,13,47,23.90
2013,07,04,13,48,24.00
2013,07,04,13,49,24.10
2013,07,04,13,50,24.20
2013,07,04,13,51,24.20
2013,07,04,13,52,24.20
2013,07,04,13,53,24.20
2013,07,04,13,54,24.30
2013,07,04,13,55,24.30
2013,07,04,13,56,24.30
2013,07,04,13,57,24.30
2013,07,04,13,58,24.30
2013,07,04,13,59,24.30
2013,07,04,14,00,24.30
2013,07,04,14,01,24.30
2013,07,04,14,02,24.30
2013,07,04,14,03,24.30
2013,07,04,14,04,24.30
2013,07,04,14,05,24.30
2013,07,04,14,06,24.40
2013,07,04,14,07,24.50
2013,07,04,14,08,24.50
2013,07,04,14,09,24.60
2013,07,04,14,10,24.60
2013,07,04,14,11,24.70
2013,07,04,14,12,24.80
2013,07,04,14,13,24.80
2013,07,04,14,14,24.90
2013,07,04,14,15,24.90
2013,07,04,14,16,25.00
2013,07,04,14,17,25.00
2013,07,04,14,18,25.00
2013,07,04,14,19,24.90
2013,07,04,14,20,24.90
2013,07,04,14,21,24.90
2013,07,04,14,22,24.80
2013,07,04,14,23,24.80
2013,07,04,14,24,24.80
2013,07,04,14,25,24.80
2013,07,04,14,26,24.80
2013,07,04,14,27,24.80
2013,07,04,14,28,24.80
2013,07,04,14,29,24.80
2013,07,04,14,30,24.70
2013,07,04,14,31,24.70
2013,07,04,14,32,24.70
2013,07,04,14,33,24.80
2013,07,04,14,34,24.80
2013,07,04,14,35,24.80
2013,07,04,14,36,24.80
2013,07,04,14,37,24.70
2013,07,04,14,38,24.70
2013,07,04,14,39,24.70
2013,07,04,14,40,24.80
2013,07,04,14,41,24.80
2013,07,04,14,42,25.00
2013,07,04,14,43,25.00
2013,07,04,14,44,25.10
2013,07,04,14,45,25.20
2013,07,04,14,46,25.20
2013,07,04,14,47,25.30
2013,07,04,14,48,25.30
2013,07,04,14,49,25.30
2013,07,04,14,50,25.40
2013,07,04,14,51,25.40
2013,07,04,14,52,25.40
2013,07,04,14,53,25.50
2013,07,04,14,54,25.50
2013,07,04,14,55,25.50
2013,07,04,14,56,25.40
2013,07,04,14,57,25.30
2013,07,04,14,58,25.30
2013,07,04,14,59,25.20
2013,07,04,15,00,25.20
2013,07,04,15,01,25.10
2013,07,04,15,02,25.10
2013,07,04,15,03,25.10
2013,07,04,15,04,25.10
2013,07,04,15,05,25.10
2013,07,04,15,06,25.10
2013,07,04,15,07,25.00
2013,07,04,15,08,25.00
2013,07,04,15,09,25.00
2013,07,04,15,10,25.10
2013,07,04,15,11,25.20
2013,07,04,15,12,25.30
2013,07,04,15,13,25.30
2013,07,04,15,14,25.20
2013,07,04,15,15,25.20
2013,07,04,15,16,25.20
2013,07,04,15,17,25.20
2013,07,04,15,18,25.20
2013,07,04,15,19,25.20
2013,07,04,15,20,25.30
2013,07,04,15,21,25.30
2013,07,04,15,22,25.30
2013,07,04,15,23,25.30
2013,07,04,15,24,25.30
2013,07,04,15,25,25.20
2013,07,04,15,26,25.20
2013,07,04,15,27,25.20
2013,07,04,15,28,25.20
2013,07,04,15,29,25.20
2013,07,04,15,30,25.30
2013,07,04,15,31,25.30
2013,07,04,15,32,25.30
2013,07,04,15,33,25.30
2013,07,04,15,34,25.30
2013,07,04,15,35,25.30
2013,07,04,15,36,25.30
2013,07,04,15,37,25.20
2013,07,04,15,38,25.20
2013,07,04,15,39,25.20
2013,07,04,15,40,25.20
2013,07,04,15,41,25.20
2013,07,04,15,42,25.30
2013,07,04,15,43,25.20
2013,07,04,15,44,25.20
2013,07,04,15,45,25.00
2013,07,04,15,46,24.90
2013,07,04,15,47,24.80
2013,07,04,15,48,24.80
2013,07,04,15,49,24.70
2013,07,04,15,50,24.70
2013,07,04,15,51,24.70
2013,07,04,15,52,24.70
2013,07,04,15,53,24.70
2013,07,04,15,54,24.70
2013,07,04,15,55,24.70
2013,07,04,15,56,24.70
2013,07,04,15,57,24.70
2013,07,04,15,58,24.70
2013,07,04,15,59,24.70
2013,07,04,16,00,24.70
2013,07,04,16,01,24.60
2013,07,04,16,02,24.60
2013,07,04,16,03,24.70
2013,07,04,16,04,24.80
2013,07,04,16,05,24.90
2013,07,04,16,06,24.90
2013,07,04,16,07,25.00
2013,07,04,16,08,25.10
2013,07,04,16,09,25.10
2013,07,04,16,10,25.10
2013,07,04,16,11,25.10
2013,07,04,16,12,25.10
2013,07,04,16,13,25.10
2013,07,04,16,14,25.10
2013,07,04,16,15,25.10
2013,07,04,16,16,25.10
2013,07,04,16,17,25.20
2013,07,04,16,18,25.20
2013,07,04,16,19,25.20
2013,07,04,16,20,25.20
2013,07,04,16,21,25.10
2013,07,04,16,22,25.00
2013,07,04,16,23,24.90
2013,07,04,16,24,24.90
2013,07,04,16,25,24.90
2013,07,04,16,26,24.80
2013,07,04,16,27,24.80
2013,07,04,16,28,24.80
2013,07,04,16,29,24.70
2013,07,04,16,30,24.70
2013,07,04,16,31,24.70
2013,07,04,16,32,24.70
2013,07,04,16,33,24.70
2013,07,04,16,34,24.70
2013,07,04,16,35,24.80
2013,07,04,16,36,24.70
2013,07,04,16,37,24.70
2013,07,04,16,38,24.70
2013,07,04,16,39,24.60
2013,07,04,16,40,24.60
2013,07,04,16,41,24.60
2013,07,04,16,42,24.60
2013,07,04,16,43,24.50
2013,07,04,16,44,24.50
2013,07,04,16,45,24.50
2013,07,04,16,46,24.50
2013,07,04,16,47,24.50
2013,07,04,16,48,24.40
2013,07,04,16,49,24.40
2013,07,04,16,50,24.30
2013,07,04,16,51,24.30
2013,07,04,16,52,24.30
2013,07,04,16,53,24.40
2013,07,04,16,54,24.40
2013,07,04,16,55,24.40
2013,07,04,16,56,24.40
2013,07,04,16,57,24.40
2013,07,04,16,58,24.40
2013,07,04,16,59,24.30
2013,07,04,17,00,24.30
2013,07,04,17,01,24.30
2013,07,04,17,02,24.30
2013,07,04,17,03,24.30
2013,07,04,17,04,24.30
2013,07,04,17,05,24.30
2013,07,04,17,06,24.30
2013,07,04,17,07,24.40
2013,07,04,17,08,24.50
2013,07,04,17,09,24.50
2013,07,04,17,10,24.60
2013,07,04,17,11,24.60
2013,07,04,17,12,24.60
2013,07,04,17,13,24.60
2013,07,04,17,14,24.60
2013,07,04,17,15,24.60
2013,07,04,17,16,24.70
2013,07,04,17,17,24.80
2013,07,04,17,18,24.80
2013,07,04,17,19,24.90